{"data":{"norad_id":59663,"intl_designator":"2024-084K","name":"STARLINK-31909","alt_names":[],"object_type":"PAYLOAD","status":"ACTIVE","operator":null,"country":"US","launch_date":"2024-05-06","launch_site_code":"AFETR","launch_vehicle":null,"mission":null,"orbit_class":"UNKNOWN","rcs_meters":null,"size_class":null,"mass_kg":null,"dimensions":null,"purposes":["comms"],"wikipedia_slug":null,"has_3d_model":false,"image_url":null,"decayed_at":null,"tle_current":{"epoch":"2026-05-24T21:39:49.665888Z","epoch_age_seconds":76739,"freshness":"FRESH","line1":"1 59663U 24084K   26144.90265817  .00000442  00000+0  25576-4 0  9990","line2":"2 59663  43.0038 331.0241 0001316 268.2109  91.8592 15.27574774116036","mean_motion":15.27574774,"eccentricity":0.0001316,"inclination_deg":43.0038,"raan_deg":331.0241,"arg_perigee_deg":268.2109,"mean_anomaly_deg":91.8592,"bstar":2.5576e-5,"rev_number":11603,"period_min":94.267071210486,"perigee_km":482.16181045872,"apogee_km":483.9676787579,"semimajor_km":6861.2017446083,"source":"CELESTRAK","updated_at":"2026-05-25T13:38:19.019481Z"}}}